Location: Brachbach
(49.1847°N, 9.7240°E)
Time: 06:24:39
(UTC+00:00)

PCSat - Pass Details

Date: 19 March 2026
Orbit: 780 x 790 km, 67.1° (Epoch: 13 April)

Event Time Altitude Azimuth Distance (km) Brightness Sun altitude
Rises 03:27:35 0° 325° (NW) 3,296 12.7 -19.7°
Reaches altitude 10° 03:30:32 10° 340° (NNW) 2,365 12.1 -19.3°
Maximum altitude 03:34:47 23° 32° (NNE) 1,647 11.8 -18.7°
Drops below altitude 10° 03:39:00 10° 84° (E) 2,357 13.2 -18.0°
Sets 03:41:56 0° 99° (E) 3,282 13.8 -17.6°
